x

Manistee Harbor, Mi (meem4) Weather Station

8:40pm - Mon 22nd Sep 2014 All times are CDT. -5 hours from GMT.

  • Wind
    11mph, 15mph gusts
  • Air Temp 56°f
  • Sea Pressure 1023mb
  • Manistee Harbor, Mi
  • Manistee Harbor, Mi

More Historic Weather Station data

Upgrade to MSW Pro to gain access to the past 30 days of data for over 8000 Wavebouys and Weather Stations around the globe.

Join Pro

Comparision Forecast

View Surf forecast
   
Mon 09/22 8:40pm 11 15 mph 1023mb 56f
8:30pm 11 13 mph 1022.7mb 56f
8:20pm 11 14 mph 1023.4mb 56f
8:10pm 11 14 mph 1022.4mb 56f
8:00pm 11 14 mph 1023.4mb 56f
7:40pm 11 14 mph 1022.7mb 56f
7:30pm 10 13 mph 1022.7mb 56f
7:20pm 10 13 mph 1022.7mb 56f
7:10pm 9 11 mph 1022.7mb 56f
7:00pm 9 15 mph 1022.7mb 57f
6:40pm 8 10 mph 1022.7mb 58f
6:30pm 7 10 mph 1022mb 58f
6:20pm 8 10 mph 1023mb 59f
6:10pm 9 10 mph 1022.4mb 59f
6:00pm 10 11 mph 1022.4mb 60f
5:40pm 14 16 mph 1022mb 59f
5:30pm 15 17 mph 1022.7mb 59f
5:20pm 16 18 mph 1022.7mb 58f
5:10pm 16 18 mph 1022mb 58f
5:00pm 16 18 mph 1022.7mb 58f
4:40pm 17 20 mph 1022mb 58f
4:30pm 18 21 mph 1022.7mb 58f
4:20pm 17 20 mph 1023mb 57f
4:10pm 16 20 mph 1022.4mb 57f
4:00pm 16 20 mph 1023mb 57f
3:40pm 16 18 mph 1023mb 57f
3:30pm 16 18 mph 1022.7mb 57f
3:20pm 16 17 mph 1023.4mb 56f
3:10pm 14 16 mph 1023.4mb 56f
3:00pm 14 16 mph 1022.7mb 56f
2:40pm 15 16 mph 1023.7mb 56f
2:30pm 14 16 mph 1023.4mb 56f
2:20pm 14 16 mph 1023mb 55f
2:10pm 14 17 mph 1024mb 56f
2:00pm 16 18 mph 1023.4mb 55f
1:40pm 16 18 mph 1024mb 55f
1:30pm 15 18 mph 1023.4mb 55f
1:20pm 16 17 mph 1023.7mb 55f
1:10pm 15 17 mph 1024mb 54f
1:00pm 14 17 mph 1023.4mb 55f
12:40pm 15 16 mph 1024.4mb 54f
12:30pm 13 16 mph 1024mb 54f
12:20pm 13 15 mph 1023.7mb 54f
12:10pm 13 15 mph 1024.4mb 54f
12:00pm 10 14 mph 1024.7mb 54f
11:40am 9 14 mph 1023.7mb 53f
11:30am 9 13 mph 1024.4mb 54f
11:20am 9 13 mph 1024.7mb 53f
11:10am 8 10 mph 1024mb 53f
11:00am 8 11 mph 1024.4mb 53f
10:40am 8 10 mph 1024.4mb 53f
10:30am 8 10 mph 1024.4mb 53f
10:20am 8 10 mph 1024.7mb 53f
10:10am 8 10 mph 1024mb 53f
10:00am 8 11 mph 1024.7mb 52f
9:40am 9 11 mph 1024mb 53f
9:30am 9 14 mph 1024.4mb 52f
9:20am 8 11 mph 1023.7mb 53f
9:10am 9 11 mph 1024.4mb 53f
9:00am 8 11 mph 1023.7mb 53f
8:40am 10 15 mph 1024mb 52f
8:30am 13 15 mph 1023.4mb 52f
8:20am 13 16 mph 1023.7mb 52f
8:10am 10 14 mph 1024mb 53f
8:00am 8 16 mph 1023mb 52f
7:40am 14 16 mph 1023.7mb 52f
7:30am 13 15 mph 1023.7mb 52f
7:20am 10 17 mph 1022.7mb 51f
7:10am 11 16 mph 1023mb 52f
7:00am 11 16 mph 1023.7mb 52f
6:40am 14 17 mph 1022.4mb 51f
6:30am 13 16 mph 1022.4mb 51f
6:20am 11 16 mph 1023mb 51f
6:10am 13 17 mph 1022.7mb 51f
6:00am 14 18 mph 1022mb 51f
5:40am 13 17 mph 1022.4mb 51f
5:30am 13 17 mph 1022.4mb 51f
5:20am 14 17 mph 1021.7mb 51f
5:10am 16 21 mph 1021.7mb 51f
5:00am 18 20 mph 1022mb 51f
4:40am 16 21 mph 1021.3mb 51f
4:30am 14 22 mph 1021.3mb 51f
4:20am 18 24 mph 1021.7mb 51f
4:10am 17 21 mph 1021.7mb 51f
4:00am 17 22 mph 1020.7mb 51f
3:40am 20 25 mph 1021mb 51f
3:30am 21 25 mph 1021.3mb 51f
3:20am 20 25 mph 1020.7mb 51f
3:10am 20 24 mph 1020.7mb 51f
3:00am 18 22 mph 1021mb 51f
2:40am 20 26 mph 1020mb 51f
2:30am 18 26 mph 1020mb 51f
2:20am 22 26 mph 1020.7mb 51f
2:10am 22 28 mph 1020.7mb 51f
2:00am 20 25 mph 1020mb 51f
1:40am 25 30 mph 1020.7mb 51f
1:30am 23 26 mph 1020.7mb 51f
1:20am 22 28 mph 1020mb 51f
1:10am 23 28 mph 1020mb 51f
1:00am 24 28 mph 1020.7mb 51f
12:40am 22 31 mph 1020mb 51f
12:30am 25 32 mph 1020mb 51f
12:20am 23 30 mph 1020.7mb 51f
12:10am 23 28 mph 1020.3mb 51f
12:00am 25 30 mph 1020mb 51f
Sun 09/21 11:40pm 25 32 mph 1020.7mb 51f
11:30pm 23 32 mph 1020.7mb 51f
11:20pm 25 31 mph 1020mb 51f
11:10pm 24 29 mph 1020mb 51f
11:00pm 22 29 mph 1020.7mb 51f
10:40pm 25 31 mph 1019.6mb 51f
10:30pm 26 31 mph 1019.6mb 51f
10:20pm 23 31 mph 1020.3mb 51f
10:10pm 25 31 mph 1020mb 51f
10:00pm 28 34 mph 1019.3mb 51f
9:40pm 31 34 mph 1020mb 51f
9:30pm 25 37 mph 1020mb 51f
9:20pm 30 37 mph 1019.3mb 51f
9:10pm 30 36 mph 1019.3mb 51f
9:00pm 30 37 mph 1019.6mb 51f
8:50pm 28 37 mph 1019.3mb 51f
8:40pm 26 37 mph 1018.6mb 51f
8:30pm 32 38 mph 1019mb 51f
8:20pm 31 37 mph 1019.3mb 51f
8:10pm 31 37 mph 1019mb 51f
8:00pm 26 40 mph 1018.6mb 51f
7:50pm 33 38 mph 1019mb 51f
7:40pm 32 38 mph 1018.6mb 51f
7:30pm 29 37 mph 1018.3mb 51f
7:20pm 31 37 mph 1017.9mb 51f
7:10pm 31 38 mph 1018.6mb 51f
7:00pm 30 38 mph 1017.9mb 51f
6:50pm 31 37 mph 1018.3mb 51f
6:40pm 32 43 mph 1018.3mb 51f
6:30pm 31 41 mph 1017.6mb 51f
6:20pm 34 40 mph 1017.3mb 51f
6:10pm 31 37 mph 1017.9mb 52f
6:00pm 29 39 mph 1017.3mb 52f
5:50pm 32 41 mph 1016.9mb 51f
5:40pm 32 39 mph 1017.3mb 52f
5:30pm 31 39 mph 1016.9mb 52f
5:20pm 31 39 mph 1016.3mb 52f
5:10pm 32 38 mph 1016.9mb 52f
5:00pm 31 39 mph 1016.3mb 52f
4:50pm 30 39 mph 1015.9mb 52f
4:40pm 30 39 mph 1016.6mb 52f
4:30pm 33 40 mph 1015.9mb 52f
4:20pm 33 38 mph 1015.2mb 53f
4:10pm 32 37 mph 1015.9mb 52f
4:00pm 30 39 mph 1015.2mb 52f
3:50pm 32 40 mph 1014.9mb 52f
3:40pm 33 41 mph 1015.6mb 52f
3:30pm 32 40 mph 1014.6mb 52f
3:20pm 31 40 mph 1014.9mb 52f
3:10pm 33 41 mph 1014.6mb 53f
3:00pm 33 43 mph 1013.5mb 53f
2:50pm 34 44 mph 1014.2mb 53f
2:40pm 36 41 mph 1013.2mb 53f
2:30pm 37 43 mph 1012.9mb 53f
2:20pm 36 41 mph 1013.5mb 53f
2:10pm 32 41 mph 1012.5mb 53f
2:00pm 32 43 mph 1012.9mb 53f
1:50pm 36 44 mph 1012.5mb 53f
1:40pm 31 41 mph 1011.9mb 55f
1:30pm 36 41 mph 1012.2mb 55f
1:20pm 32 44 mph 1011.5mb 55f
1:10pm 37 44 mph 1011.9mb 56f
1:00pm 37 44 mph 1011.2mb 56f
12:50pm 36 45 mph 1010.8mb 56f
12:40pm 36 44 mph 1011.2mb 56f
12:30pm 38 46 mph 1010.2mb 56f
12:20pm 38 47 mph 1010.5mb 56f
12:10pm 36 44 mph 1009.8mb 56f
12:00pm 37 46 mph 1009.8mb 56f
11:50am 36 47 mph 1010.2mb 56f
11:40am 37 47 mph 1008.8mb 56f
11:30am 39 47 mph 1009.1mb 56f
11:20am 39 46 mph 1008.5mb 56f
11:10am 36 45 mph 1008.5mb 56f
11:00am 37 46 mph 1008.5mb 56f
10:50am 38 46 mph 1007.8mb 56f
10:40am 36 45 mph 1008.1mb 56f
10:30am 34 40 mph 1007.1mb 56f
10:20am 31 43 mph 1007.8mb 56f
10:10am 34 41 mph 1006.8mb 57f
10:00am 31 39 mph 1007.1mb 57f
9:50am 32 38 mph 1006.8mb 57f
9:40am 30 37 mph 1006.8mb 57f
9:30am 31 38 mph 1006.8mb 57f
9:20am 34 38 mph 1006.1mb 57f
9:10am 28 31 mph 1006.4mb 57f
9:00am 26 31 mph 1005.8mb 58f
8:50am 26 31 mph 1006.1mb 58f
8:40am 25 31 mph 1005.1mb 58f
8:30am 25 30 mph 1005.8mb 58f
8:20am 25 30 mph 1004.7mb 58f
8:10am 24 29 mph 1005.4mb 58f
8:00am 23 29 mph 1004.7mb 58f
7:50am 24 30 mph 1004.7mb 58f
7:40am 25 30 mph 1004.4mb 58f
7:30am 25 28 mph 1004.1mb 58f
7:20am 23 25 mph 1004.1mb 58f
7:10am 22 24 mph 1003.7mb 58f
7:00am 18 21 mph 1004.1mb 59f
6:50am 17 21 mph 1003.4mb 59f
6:40am 17 20 mph 1003.7mb 59f
6:30am 16 21 mph 1003mb 59f
6:20am 15 20 mph 1004.1mb 59f
6:10am 17 20 mph 1003mb 59f
6:00am 14 16 mph 1003.7mb 59f
5:50am 11 15 mph 1002.7mb 59f
5:40am 8 9 mph 1003mb 59f
5:30am 7 11 mph 1002.4mb 58f
5:20am 11 15 mph 1003mb 59f
5:10am 14 17 mph 1002.4mb 59f
5:00am 16 20 mph 1003mb 59f
4:50am 16 21 mph 1002.4mb 59f
4:40am 17 20 mph 1003mb 59f
4:30am 16 22 mph 1002.4mb 59f
4:20am 17 21 mph 1002.7mb 59f
4:10am 18 23 mph 1002.4mb 59f
4:00am 17 20 mph 1002.7mb 59f
3:50am 17 21 mph 1002.4mb 59f
3:40am 15 18 mph 1002.7mb 60f
3:30am 16 18 mph 1002.7mb 60f
3:20am 10 11 mph 1002.7mb 60f
3:10am 7 9 mph 1002.7mb 59f
3:00am 8 11 mph 1002.7mb 59f
2:50am 9 14 mph 1002.7mb 59f
2:40am 14 16 mph 1002.7mb 60f
2:30am 14 20 mph 1002.7mb 60f
2:20am 17 25 mph 1003mb 60f
2:10am 21 32 mph 1002.7mb 60f
2:00am 28 32 mph 1003mb 60f
1:50am 24 31 mph 1002.7mb 60f
1:40am 29 45 mph 1003.7mb 59f
1:30am 36 54 mph 1003mb 60f
1:20am 31 38 mph 1004.1mb 61f
1:10am 9 10 mph 1003mb 61f
1:00am 9 13 mph 1003.7mb 62f
12:50am 7 14 mph 1003.4mb 62f
12:40am 13 15 mph 1003.7mb 62f
12:30am 14 17 mph 1004.1mb 62f
12:20am 14 16 mph 1003.7mb 62f
12:10am 15 16 mph 1004.4mb 62f
12:00am 11 15 mph 1003.7mb 62f
Sat 09/20 11:50pm 14 15 mph 1004.7mb 62f
11:40pm 14 15 mph 1004.4mb 62f
11:30pm 13 15 mph 1004.4mb 61f
11:20pm 14 17 mph 1005.1mb 62f
11:10pm 15 17 mph 1004.4mb 62f
11:00pm 15 21 mph 1005.4mb 62f
10:50pm 17 21 mph 1005.1mb 62f
10:40pm 17 20 mph 1005.4mb 62f
10:30pm 15 17 mph 1005.4mb 62f
10:20pm 16 20 mph 1004.7mb 62f
10:10pm 16 20 mph 1005.8mb 63f
10:00pm 17 21 mph 1005.4mb 63f
9:50pm 17 22 mph 1005.8mb 63f
9:40pm 18 21 mph 1006.1mb 64f
9:30pm 17 20 mph 1005.4mb 64f
9:20pm 17 20 mph 1006.4mb 63f
9:10pm 16 17 mph 1005.8mb 63f
9:00pm 16 18 mph 1006.4mb 63f
8:50pm 16 18 mph 1006.4mb 63f
8:40pm 15 17 mph 1005.8mb 63f
8:30pm 14 17 mph 1006.8mb 62f
8:20pm 17 20 mph 1006.1mb 63f
8:10pm 16 20 mph 1006.4mb 62f
8:00pm 17 20 mph 1006.4mb 63f
7:50pm 17 21 mph 1005.8mb 63f
7:40pm 17 20 mph 1006.4mb 63f
7:30pm 16 17 mph 1005.8mb 63f
7:20pm 17 18 mph 1006.1mb 63f
7:10pm 17 18 mph 1006.1mb 62f
7:00pm 16 17 mph 1005.4mb 62f
6:50pm 15 16 mph 1006.4mb 62f
6:40pm 14 16 mph 1006.1mb 62f
6:30pm 14 20 mph 1005.8mb 62f
6:20pm 13 17 mph 1006.8mb 62f
6:10pm 15 16 mph 1006.4mb 62f
6:00pm 13 14 mph 1005.8mb 62f
5:50pm 13 16 mph 1006.4mb 63f
5:40pm 16 18 mph 1006.4mb 63f
5:30pm 17 21 mph 1005.8mb 63f
5:20pm 18 21 mph 1006.4mb 64f
5:10pm 20 23 mph 1006.4mb 65f
5:00pm 20 23 mph 1005.8mb 64f
4:50pm 21 22 mph 1006.4mb 63f
4:40pm 20 21 mph 1005.8mb 63f
4:30pm 18 21 mph 1006.4mb 62f
4:20pm 20 24 mph 1007.1mb 62f
4:10pm 22 25 mph 1006.4mb 63f
4:00pm 21 23 mph 1006.8mb 63f
3:50pm 22 23 mph 1006.8mb 63f
3:40pm 18 25 mph 1006.1mb 63f
3:30pm 23 26 mph 1006.8mb 63f
3:20pm 23 26 mph 1007.1mb 64f
3:10pm 22 24 mph 1006.4mb 63f
3:00pm 22 24 mph 1006.8mb 63f
2:50pm 23 25 mph 1007.5mb 63f
2:40pm 22 28 mph 1006.8mb 63f
2:30pm 25 30 mph 1007.1mb 64f
2:20pm 25 28 mph 1007.5mb 64f
2:10pm 25 30 mph 1006.8mb 64f
2:00pm 25 29 mph 1006.4mb 64f
1:50pm 24 26 mph 1007.5mb 63f
1:40pm 23 28 mph 1007.5mb 63f
1:30pm 24 29 mph 1006.8mb 63f
1:20pm 26 29 mph 1007.1mb 63f
1:10pm 23 26 mph 1007.8mb 62f
1:00pm 25 30 mph 1007.1mb 63f
12:50pm 25 29 mph 1006.8mb 62f
12:40pm 24 28 mph 1007.1mb 63f
12:30pm 24 30 mph 1007.5mb 63f
12:20pm 26 30 mph 1006.8mb 63f
12:10pm 26 30 mph 1006.8mb 64f
12:00pm 22 29 mph 1007.8mb 65f
11:50am 22 26 mph 1007.5mb 65f
11:40am 20 28 mph 1006.8mb 66f
11:30am 24 31 mph 1007.5mb 66f
11:20am 23 28 mph 1007.8mb 66f
11:10am 24 33 mph 1007.5mb 67f
11:00am 24 29 mph 1007.5mb 65f
10:50am 18 24 mph 1008.5mb 65f
10:40am 22 33 mph 1008.1mb 66f
10:30am 28 36 mph 1008.1mb 64f
10:20am 21 25 mph 1009.1mb 65f
10:10am 24 28 mph 1008.5mb 65f
10:00am 23 30 mph 1008.1mb 64f
9:50am 23 29 mph 1009.1mb 64f
9:40am 25 31 mph 1008.1mb 64f
9:30am 28 33 mph 1008.1mb 63f
9:20am 26 34 mph 1008.8mb 63f
9:10am 26 33 mph 1008.5mb 64f
9:00am 24 30 mph 1008.1mb 64f
8:50am 28 37 mph 1008.1mb 65f
8:40am 30 41 mph 1007.8mb 64f
8:30am 29 37 mph 1007.8mb 64f
8:20am 25 38 mph 1008.5mb 65f
8:10am 29 37 mph 1008.1mb 65f
8:00am 29 34 mph 1008.1mb 64f
7:50am 22 28 mph 1008.5mb 64f
7:40am 20 25 mph 1008.1mb 64f
7:30am 21 25 mph 1007.8mb 64f
7:20am 18 28 mph 1007.8mb 64f
7:10am 22 28 mph 1007.1mb 64f
7:00am 20 29 mph 1008.1mb 64f
6:50am 18 29 mph 1008.1mb 64f
6:40am 23 30 mph 1007.8mb 64f
6:30am 21 28 mph 1008.8mb 64f
6:20am 24 29 mph 1008.1mb 64f
6:10am 26 31 mph 1008.8mb 64f
6:00am 24 33 mph 1008.5mb 64f
5:50am 25 34 mph 1008.5mb 64f
5:40am 26 37 mph 1009.1mb 64f
5:30am 28 39 mph 1008.1mb 63f
5:20am 31 38 mph 1009.5mb 62f
5:10am 30 37 mph 1009.1mb 62f
5:00am 32 38 mph 1009.5mb 63f
4:50am 29 34 mph 1009.1mb 63f
4:40am 31 40 mph 1008.8mb 63f
4:30am 32 40 mph 1009.5mb 64f
4:20am 32 43 mph 1009.5mb 64f
4:10am 32 38 mph 1009.1mb 65f
4:00am 30 39 mph 1009.8mb 64f
3:50am 28 40 mph 1009.1mb 64f
3:40am 32 40 mph 1009.5mb 65f
3:30am 32 40 mph 1009.8mb 65f
3:20am 31 37 mph 1009.5mb 65f
3:10am 30 37 mph 1009.1mb 65f
3:00am 30 38 mph 1009.8mb 65f
2:50am 29 37 mph 1009.5mb 65f
2:40am 31 39 mph 1009.5mb 66f
2:30am 31 38 mph 1009.8mb 65f
2:20am 31 43 mph 1009.5mb 65f
2:10am 30 44 mph 1009.8mb 65f
2:00am 31 43 mph 1010.5mb 66f
1:50am 32 40 mph 1010.2mb 66f
1:40am 37 45 mph 1009.8mb 68f
1:30am 33 43 mph 1010.8mb 67f
1:20am 32 44 mph 1010.8mb 67f
1:10am 33 43 mph 1010.5mb 68f
1:00am 31 38 mph 1011.2mb 68f
12:50am 30 43 mph 1011.9mb 67f
12:40am 30 37 mph 1011.2mb 67f
12:30am 31 39 mph 1011.5mb 68f
12:20am 31 41 mph 1011.9mb 68f
12:10am 30 38 mph 1011.5mb 68f
12:00am 28 39 mph 1011.2mb 68f
Fri 09/19 11:50pm 31 39 mph 1011.9mb 67f
11:40pm 29 39 mph 1011.9mb 67f
11:30pm 33 39 mph 1011.2mb 68f
11:20pm 26 37 mph 1011.9mb 68f
11:10pm 29 39 mph 1011.9mb 68f
11:00pm 24 31 mph 1011.2mb 68f
10:50pm 21 30 mph 1011.9mb 66f
10:40pm 18 25 mph 1012.2mb 66f
10:30pm 16 24 mph 1011.9mb 65f
10:20pm 14 21 mph 1012.9mb 65f
10:10pm 14 23 mph 1012.9mb 64f
10:00pm 14 18 mph 1012.2mb 64f
9:50pm 13 20 mph 1013.2mb 64f
9:40pm 14 21 mph 1012.9mb 64f
9:30pm 13 21 mph 1012.5mb 65f
9:20pm 14 23 mph 1013.2mb 65f
9:10pm 14 23 mph 1012.9mb 65f
9:00pm 18 28 mph 1012.5mb 65f
8:50pm 20 25 mph 1013.2mb 65f
8:40pm 20 30 mph 1012.9mb 65f
8:30pm 18 30 mph 1012.5mb 65f
8:20pm 20 29 mph 1013.2mb 65f
8:10pm 20 29 mph 1013.2mb 65f
8:00pm 20 29 mph 1012.9mb 65f
7:50pm 18 28 mph 1013.9mb 65f
7:40pm 18 28 mph 1013.5mb 65f
7:30pm 20 28 mph 1012.9mb 65f
7:20pm 18 28 mph 1013.5mb 65f
7:10pm 18 31 mph 1013.9mb 65f
7:00pm 18 29 mph 1013.5mb 65f
6:50pm 17 28 mph 1013.9mb 65f
6:40pm 22 28 mph 1014.2mb 65f
6:30pm 20 30 mph 1013.9mb 65f
6:20pm 24 33 mph 1013.5mb 65f
6:10pm 22 31 mph 1014.6mb 65f
6:00pm 22 31 mph 1014.9mb 66f
5:50pm 20 28 mph 1015.6mb 66f
5:40pm 18 28 mph 1014.9mb 67f
5:30pm 22 34 mph 1014.6mb 67f
5:20pm 23 34 mph 1014.9mb 67f
5:10pm 24 34 mph 1015.2mb 67f
5:00pm 25 34 mph 1015.6mb 67f
4:50pm 25 34 mph 1015.6mb 68f
4:40pm 23 40 mph 1015.2mb 67f
4:30pm 31 36 mph 1014.9mb 67f
4:20pm 26 34 mph 1014.9mb 68f
4:10pm 26 30 mph 1014.9mb 67f
4:00pm 28 37 mph 1015.2mb 67f
3:50pm 26 36 mph 1015.9mb 67f
3:40pm 31 38 mph 1016.3mb 68f
3:30pm 26 33 mph 1016.6mb 67f
3:20pm 26 31 mph 1016.6mb 68f
3:10pm 22 38 mph 1016.6mb 68f
3:00pm 21 31 mph 1016.6mb 69f
2:50pm 23 32 mph 1016.9mb 68f
2:40pm 26 32 mph 1016.9mb 67f
2:30pm 24 32 mph 1017.3mb 68f
2:20pm 23 26 mph 1017.3mb 67f
2:10pm 16 28 mph 1017.6mb 67f
2:00pm 13 23 mph 1018.3mb 68f
1:50pm 16 23 mph 1018.3mb 67f
1:40pm 16 23 mph 1018.6mb 67f
1:30pm 20 28 mph 1018.3mb 67f
1:20pm 18 24 mph 1019.3mb 67f
1:10pm 13 23 mph 1019.3mb 66f
1:00pm 17 24 mph 1020mb 65f
12:50pm 15 22 mph 1020.3mb 65f
12:40pm 16 22 mph 1020mb 64f
12:30pm 15 21 mph 1020mb 64f
12:20pm 14 21 mph 1019.6mb 64f
12:10pm 13 20 mph 1019.6mb 65f
12:00pm 15 22 mph 1020mb 63f
11:50am 11 17 mph 1020.3mb 64f
11:40am 15 25 mph 1020.7mb 63f
11:30am 14 21 mph 1020mb 63f
11:20am 16 20 mph 1019.6mb 62f
11:10am 11 16 mph 1021mb 62f
11:00am 11 18 mph 1021.7mb 62f
10:50am 10 14 mph 1021mb 60f
10:40am 10 15 mph 1021mb 59f
10:30am 10 16 mph 1021.3mb 59f
10:20am 9 16 mph 1020.7mb 58f
10:10am 11 17 mph 1021.7mb 58f
10:00am 9 14 mph 1021mb 58f
9:50am 10 15 mph 1021.7mb 57f
9:40am 10 16 mph 1021.3mb 57f
9:30am 9 14 mph 1022mb 56f
9:20am 10 16 mph 1021.3mb 56f
9:10am 10 18 mph 1022.4mb 55f
9:00am 13 21 mph 1021.7mb 54f
8:50am 14 22 mph 1021.7mb 53f
8:40am 14 20 mph 1022.4mb 53f
8:30am 15 20 mph 1022.4mb 52f
8:20am 16 21 mph 1021.3mb 51f
8:10am 15 22 mph 1022mb 50f
8:00am 14 20 mph 1022.7mb 49f
7:50am 13 17 mph 1022.7mb 48f
7:40am 13 16 mph 1022.4mb 47f
7:30am 14 20 mph 1022.4mb 47f
7:20am 11 17 mph 1022.4mb 47f
7:10am 11 18 mph 1022.7mb 46f
7:00am 13 17 mph 1023mb 46f
6:50am 13 17 mph 1023mb 46f
6:40am 11 17 mph 1023mb 46f
6:30am 10 18 mph 1022.4mb 46f
6:20am 11 16 mph 1022.4mb 46f
6:10am 13 20 mph 1022.4mb 46f
6:00am 13 17 mph 1022.7mb 46f
5:50am 11 17 mph 1022.7mb 46f
5:40am 11 17 mph 1023mb 46f
5:30am 13 18 mph 1022.7mb 46f
5:20am 13 18 mph 1022mb 46f
5:10am 13 17 mph 1022mb 47f
5:00am 13 20 mph 1022.4mb 47f
4:50am 11 17 mph 1022.7mb 47f
4:40am 11 18 mph 1022.7mb 47f
4:30am 11 17 mph 1022.4mb 47f
4:20am 13 18 mph 1022mb 47f
4:10am 10 16 mph 1022mb 47f
4:00am 9 15 mph 1022.4mb 47f
3:50am 10 16 mph 1022.7mb 47f
3:40am 10 15 mph 1022.4mb 47f
3:30am 10 16 mph 1021.7mb 48f
3:20am 10 17 mph 1021.7mb 48f
3:10am 11 17 mph 1022.4mb 48f
3:00am 10 15 mph 1022.4mb 48f
2:50am 11 17 mph 1022.4mb 48f